TimeEDT,TemperatureF,Dew PointF,Humidity,Sea Level PressureIn,VisibilityMPH,Wind Direction,Wind SpeedMPH,Gust SpeedMPH,PrecipitationIn,Events,Conditions,WindDirDegrees,DateUTC
12:02 AM,39.2,35.6,87,29.54,10.0,NW,10.4,20.7,0.00,,Overcast,310,2012-10-31 04:02:00
12:33 AM,39.2,35.6,87,29.54,5.0,NW,11.5,20.7,0.00,,Overcast,310,2012-10-31 04:33:00
12:53 AM,39.0,36.0,89,29.56,7.0,NW,6.9,20.7,0.00,Rain,Light Rain,310,2012-10-31 04:53:00
1:43 AM,37.4,35.6,93,29.55,7.0,WNW,11.5,17.3,0.03,Rain,Light Rain,290,2012-10-31 05:43:00
1:53 AM,37.9,35.1,89,29.56,8.0,WNW,10.4,18.4,0.03,Rain,Light Rain,300,2012-10-31 05:53:00
2:23 AM,37.4,33.8,87,29.55,6.0,WNW,9.2,-,0.01,,Overcast,300,2012-10-31 06:23:00
2:37 AM,37.4,33.8,87,29.55,8.0,WNW,11.5,-,0.01,,Overcast,290,2012-10-31 06:37:00
2:53 AM,37.0,35.1,93,29.57,7.0,WNW,9.2,-,0.01,,Overcast,300,2012-10-31 06:53:00
3:33 AM,37.4,35.6,93,29.56,7.0,WNW,10.4,19.6,0.00,,Overcast,300,2012-10-31 07:33:00
3:40 AM,37.4,35.6,93,29.57,8.0,WNW,9.2,17.3,0.00,,Overcast,300,2012-10-31 07:40:00
3:53 AM,37.9,35.1,89,29.58,6.0,WNW,6.9,-,0.00,,Overcast,300,2012-10-31 07:53:00
4:35 AM,37.4,35.6,93,29.57,5.0,WNW,11.5,18.4,N/A,,Overcast,290,2012-10-31 08:35:00
4:53 AM,37.9,35.1,89,29.59,5.0,West,9.2,17.3,0.00,Rain,Light Rain,280,2012-10-31 08:53:00
5:53 AM,37.9,35.1,89,29.61,10.0,WNW,9.2,17.3,0.01,,Overcast,290,2012-10-31 09:53:00
6:36 AM,37.4,35.6,93,29.60,3.0,WNW,9.2,16.1,N/A,,Overcast,290,2012-10-31 10:36:00
6:53 AM,37.9,36.0,93,29.61,3.0,WNW,10.4,-,N/A,,Overcast,290,2012-10-31 10:53:00
7:43 AM,37.4,35.6,93,29.61,10.0,WNW,11.5,17.3,N/A,,Overcast,290,2012-10-31 11:43:00
7:53 AM,37.9,35.1,89,29.62,10.0,West,11.5,-,N/A,,Overcast,280,2012-10-31 11:53:00
8:03 AM,37.4,35.6,93,29.61,10.0,West,12.7,18.4,N/A,,Overcast,280,2012-10-31 12:03:00
8:53 AM,37.9,36.0,93,29.64,7.0,West,9.2,-,N/A,,Overcast,280,2012-10-31 12:53:00
9:53 AM,39.0,36.0,89,29.64,10.0,WNW,10.4,-,N/A,,Overcast,290,2012-10-31 13:53:00
10:29 AM,39.2,35.6,87,29.64,10.0,WNW,8.1,-,N/A,,Overcast,290,2012-10-31 14:29:00
10:53 AM,39.9,35.1,83,29.65,10.0,WNW,8.1,-,N/A,,Overcast,290,2012-10-31 14:53:00
11:53 AM,41.0,36.0,82,29.66,10.0,WNW,8.1,16.1,0.00,,Overcast,300,2012-10-31 15:53:00
12:53 PM,41.0,35.1,79,29.67,10.0,WNW,8.1,16.1,N/A,,Overcast,290,2012-10-31 16:53:00
1:53 PM,41.0,36.0,82,29.67,10.0,WNW,6.9,-,N/A,,Overcast,290,2012-10-31 17:53:00
3:53 PM,41.0,37.0,86,29.68,8.0,WNW,8.1,-,0.00,,Overcast,300,2012-10-31 19:53:00
4:53 PM,41.0,37.0,86,29.69,8.0,West,9.2,-,0.00,,Overcast,280,2012-10-31 20:53:00
5:06 PM,39.2,37.4,93,29.69,3.0,West,15.0,23.0,0.01,Rain,Light Rain,270,2012-10-31 21:06:00
5:18 PM,39.2,37.4,93,29.69,2.5,West,11.5,20.7,0.01,Rain,Light Rain,280,2012-10-31 21:18:00
5:46 PM,39.2,37.4,93,29.70,2.0,West,13.8,19.6,0.02,Rain,Light Rain,280,2012-10-31 21:46:00
5:53 PM,39.9,37.0,89,29.72,2.0,West,11.5,20.7,0.03,Rain,Light Rain,280,2012-10-31 21:53:00
6:00 PM,39.2,37.4,93,29.70,2.5,West,15.0,23.0,0.00,,Overcast,280,2012-10-31 22:00:00
6:02 PM,39.2,37.4,93,29.70,3.0,West,15.0,23.0,0.00,,Overcast,280,2012-10-31 22:02:00
6:23 PM,39.2,37.4,93,29.71,3.0,West,12.7,-,0.00,,Overcast,280,2012-10-31 22:23:00
6:42 PM,39.2,37.4,93,29.71,4.0,West,10.4,-,0.00,Rain,Light Rain,280,2012-10-31 22:42:00
6:53 PM,39.9,37.0,89,29.73,4.0,West,12.7,23.0,0.00,Rain,Light Rain,280,2012-10-31 22:53:00
6:59 PM,39.2,37.4,93,29.72,3.0,West,12.7,23.0,0.00,Rain,Light Rain,280,2012-10-31 22:59:00
8:53 PM,39.0,36.0,89,29.75,4.0,West,13.8,21.9,0.01,,Overcast,280,2012-11-01 00:53:00
9:09 PM,39.2,35.6,87,29.74,4.0,West,11.5,20.7,N/A,,Overcast,280,2012-11-01 01:09:00
9:53 PM,39.0,36.0,89,29.76,5.0,West,12.7,19.6,N/A,,Overcast,270,2012-11-01 01:53:00
10:53 PM,39.0,36.0,89,29.76,5.0,West,11.5,-,0.00,Rain,Light Rain,270,2012-11-01 02:53:00
11:53 PM,39.0,36.0,89,29.76,6.0,West,10.4,-,0.03,Rain,Light Rain,270,2012-11-01 03:53:00